FENGYUN 1C DEB, 38724

Orbit data source: Space-Track

FENGYUN 1C DEB, 38724 is space debris in SSO originally from a launch on Mon, 10 May 1999 UTC launched from the Taiyaun Space Center, China (TSC). Fengyun 1C debris stems from the Chinese weather satellite Fengyun-1C, which was intentionally destroyed by a Chinese anti-satellite missile in 2007. This event dramatically increased the amount of space debris, with thousands of trackable fragments posing hazards to satellites and human spaceflight. The Fengyun 1C debris cloud has become a focal point in discussions about space sustainability and the need for international regulations to prevent the creation of new debris.

Loading next visibility...
Identifier
38724, 1999-025ETR
Orbit
SSO
Country
Flag of CNCN / PRC
Related business
Manufacturer
Unknown
Mission
Spacecraft
Bus & Motor
Unknown
Mass
Unknown
Launch date (UTC)
1999-05-10 (27 years ago)
Launch vehicle
Unknown
Launch site
Taiyaun Space Center, China (TSC)
Object type
Payload
Rocket body
Debris
Shape & HBR
Unknown shape, 0.1 m
Radar Cross Section
Small (<0.1 m²)

Expand to show TLE details & history
Last TLE update: 10 hours ago

TLE from 10 hours ago
0 FENGYUN 1C DEB
1 38724U 99025ETR 26256.00040466  .00004923  00000-0  22387-2 0  9992
2 38724  98.7316 265.0582 0120175   6.3899 353.8776 14.18425630605081
Epoch: 2026-09-13T00:00Z
TLE epoch observation values (Epoch: 2026-09-13T00:00:34.962Z)
Latitude
-0.00003°
Longitude
-87.08881°
Altitude
747.451 km
Speed
7.526 km/s
True Right ascension
17h 40m 13s
True Declination
0° 00' 00"
Sunlit
Object was in daylight at epoch
Visualization orbit readout
Latitude
Unknown
Longitude
Unknown
Altitude
Unknown
Speed
Unknown
Apparent Right ascension
Unknown
Apparent Declination
Unknown
Sunlit
N/A
Visualization observer readout
Local Sidereal Time
02:29:41
Azimuth
Unknown
Elevation
Unknown
Doppler factor
Unknown
Orbital elements
Apogee altitude
914.441 km
Perigee altitude
741.245 km
Semi-major axis
7,205.98 km
Eccentricity
0.01202
Inclination
98.7316°
RAAN
265.0582°
Arg. of periapsis
6.3899°
True anomaly
353.7285°
Mean anomaly
353.8776°
Eccentric anomaly
353.80328°
Mean motion
3.54816 °/min
Orbital period
101.46 mins
BSTAR
0.0022387
Loading maneuver chart data...
Computing Atmospheric mass density...

Documentation

Showing up to 5 results
|